Terug naar catalogus

DELTA 1 DEB

ActiefLEO
NORAD 7130·DEBRIS·🇺🇸 United States

Gelanceerd Nov 6, 1973 vanaf Vandenberg Space Force Base

Loading…

Volgende Passages (komende 24 uur)

TLE

VersSource: Space-Track

Epoch: Sep 14, 2026, 09:03 UTC

1 07130U 73086CU  26257.37761074  .00005569  00000-0  92054-2 0  9999
2 07130 102.4025  57.7558 0049472 161.1209 230.1328 13.46987466473872

Volg DELTA 1 DEB in realtime met AllMySat

Download on the App Store